Regional Weather Roundup
Issued by NWS Midland/Odessa, TX

Skip options and go directly to product.
Home | Oldest Version | Next Version | Current Version | All | Text Only | Save Text | Print | Product List | Glossary On

Skip product version selection by date and time.   
499
ASUS44 KMAF 311102
RWRMAF
MIDLAND AREA WEATHER ROUNDUP
NATIONAL WEATHER SERVICE MIDLAND TX
600 AM CDT SUN AUG 31 2014

...IN SOUTHWEST TEXAS AND SOUTHEAST NEW MEXICO...

CITY           SKY/WX    TMP DP  RH WIND       PRES   REMARKS
ALPINE         CLEAR     70  57  63 SW9       30.14F
ANDREWS        FAIR      74  62  65 S9        29.99F
ARTESIA        NOT AVBL
BIG SPRING     CLEAR     74  64  70 S9        29.99S
CARLSBAD       CLEAR     72  55  55 S8        29.97S
DRYDEN           N/A     80  67  64 E6        29.95S
FORT STOCKTON  CLEAR     74  61  63 S13       29.98S
GUAD PASS      CLEAR     71  49  45 SW12      30.15F
HOBBS          NOT AVBL
MARFA          CLEAR     61  54  77 N8        30.14F
MIDLAND AIRPK  NOT AVBL
MIDLAND INTL   CLEAR     76  64  66 S12       29.97F
ODESSA         CLEAR     76  63  64 S13       29.98F
PECOS          CLEAR     71  60  68 E3        29.94S
PRESIDIO       FAIR      80  58  47 N9        29.97S
SEMINOLE       CLEAR     72  60  65 S7        30.01S
SNYDER         CLEAR     71  65  81 S7        29.97S
WINK           MOCLDY    76  63  64 SE8       29.95S
$$
...OTHER STATIONS IN TEXAS...

CITY           SKY/WX    TMP DP  RH WIND       PRES   REMARKS
ABILENE        CLEAR     75  67  76 S9        29.95S
AMARILLO       CLEAR     71  59  65 S18       29.96S
AUSTIN         MOCLDY    73  71  93 CALM      29.96R
BROWNSVILLE    CLEAR     78  75  90 SE6       29.92S
CORPUS CHRISTI PTCLDY    78  77  96 S3        29.92F
DALLAS FTW     CLEAR     77  71  82 S8        29.93R
DEL RIO        CLEAR     79  70  74 SE10      29.93R
EL PASO        CLEAR     73  48  41 CALM      30.02R
HOUSTON INT    PTCLDY    73  73 100 CALM      29.97S
LUBBOCK        PTCLDY    74  61  63 S15       29.98S
SAN ANGELO     CLEAR     74  67  78 S10       29.95S
SAN ANTONIO    CLOUDY    78  73  84 S9        29.97S
WACO           CLEAR     76  72  87 S10       29.95R
WICHITA FALLS  NOT AVBL
$$
...OTHER LOCATIONS IN NEW MEXICO...

CITY           SKY/WX    TMP DP  RH WIND       PRES   REMARKS
ALAMAGORDO     CLEAR     66  43  42 S8        30.03S
ALBUQUERQUE    PTCLDY    67  41  38 S8        30.08S
CANNON AFB     CLEAR     69  58  67 SW8       30.03S
CLOVIS           N/A     66  54  63 SW8       30.05S
HOLLOMAN AFB   CLEAR     72  42  34 S8        30.02R
ROSWELL        CLEAR     64  49  57 S7        29.99S
RUIDOSO        CLEAR     64  39  39 W8        30.22S
SANTA FE       CLEAR     59  40  49 W3        30.12S
TRUTH OR CONSE CLEAR     67  44  43 NW8       30.05S
TUCUMCARI      CLEAR     73  51  46 S15       29.96S
$$

USA.gov is the U.S. government's official web portal to all federal, state and local government web resources and services.